Location: Ferchesar
(52.6477°N, 12.4298°E)
Time: 16:13:30
(UTC+01:00)

Explorer 7 - Pass Details

Date: 10 December 2021
Orbit: 483 x 674 km, 50.3° (Epoch: 23 January)

Event Time Altitude Azimuth Distance (km) Brightness Sun altitude
Rises 08:18:49 0° 279° (W) 2,761 9.9 0.1°
Reaches altitude 10° 08:21:15 10° 271° (W) 1,828 9.0 0.4°
Maximum altitude 08:25:03 36° 204° (SSW) 854 8.0 0.8°
Drops below altitude 10° 08:28:39 10° 137° (SE) 1,728 11.7 1.2°
Sets 08:30:54 0° 129° (SE) 2,587 13.7 1.5°
